EW2785 Weather Reports


time (UTC)temp
F
wind
direction
speed
knots
gust
knots
rain 1hr
in
rain 24hr
in
rain mn
in
humidity
%
barometer
mb
20260507110015 43 184 0.0 3.5 0.00 0.91 0.00 94 1008.7
20260507104505 43 196 0.0 0.0 0.00 0.91 0.00 94 1008.6
20260507103004 43 196 0.0 0.0 0.00 0.91 0.00 94 1008.7
20260507101504 43 196 0.0 1.7 0.00 0.91 0.00 94 1008.5
20260507100003 43 196 0.0 0.0 0.00 0.91 0.00 94 1008.4
20260507094502 43 196 0.0 0.0 0.00 0.91 0.00 94 1008.4
20260507093002 43 196 0.0 0.0 0.00 0.91 0.00 94 1008.4
20260507091501 43 196 0.0 0.0 0.00 0.91 0.00 94 1008.6
20260507090106 43 196 0.0 0.0 0.00 0.91 0.00 94 1008.5
20260507084600 43 196 0.0 1.7 0.00 0.91 0.00 94 1008.8
20260507083100 43 277 0.0 0.9 0.00 0.91 0.00 94 1008.8
20260507081559 43 277 0.0 0.0 0.00 0.91 0.00 94 1008.6
20260507074612 43 296 0.0 0.0 0.00 0.91 0.00 94 1008.9
20260507073056 43 296 0.0 0.0 0.00 0.91 0.00 94 1008.7
20260507071556 43 296 0.0 0.0 0.00 0.91 0.00 94 1008.4
20260507070111 43 296 0.0 0.0 0.00 0.92 0.00 94 1008.3
20260507064605 43 296 0.0 0.0 0.00 0.92 0.00 94 1008.4
20260507063059 43 296 0.0 0.0 0.00 0.92 0.00 94 1008.4
20260507061554 43 296 0.0 0.0 0.00 0.92 0.00 94 1008.3
20260507060052 42 296 0.0 0.0 0.00 0.92 0.00 94 1008.3
20260507054554 43 296 0.0 0.0 0.00 0.92 0.00 94 1008.6
20260507053051 42 296 0.0 0.0 0.00 0.92 0.00 94 1009.0
20260507051553 42 296 0.0 0.0 0.00 0.92 0.00 94 1008.9
20260507050048 42 296 0.0 0.9 0.00 0.94 0.00 94 1009.1
20260507044551 42 296 0.0 0.0 0.00 0.94 0.00 94 1009.0
20260507043049 42 296 0.0 1.7 0.00 0.94 0.00 94 1009.2
20260507041545 42 321 0.0 1.7 0.00 0.94 0.00 94 1008.7
20260507040042 42 306 0.0 0.0 0.00 0.98 0.94 94 1008.9
20260507034542 42 306 0.0 0.0 0.00 0.98 0.94 94 1008.7
20260507033044 43 306 0.0 0.0 0.00 0.98 0.94 94 1008.7
20260507031541 43 306 0.0 0.0 0.00 0.98 0.94 94 1009.0
20260507030043 43 306 0.0 0.0 0.00 0.98 0.94 94 1008.9
20260507024539 43 306 0.0 0.0 0.01 0.98 0.94 94 1009.0
20260507023038 43 306 0.0 0.0 0.02 0.98 0.94 94 1009.0
20260507021539 43 306 0.0 0.0 0.03 0.98 0.94 94 1009.3
20260507020042 43 306 0.0 0.0 0.05 0.98 0.94 94 1009.3
20260507014543 43 306 0.0 0.0 0.05 0.97 0.93 94 1009.2
20260507013047 43 306 0.0 1.7 0.04 0.96 0.92 94 1009.1
20260507011534 43 333 0.0 3.5 0.03 0.95 0.91 94 1008.9
20260507010037 43 261 0.9 3.5 0.03 0.93 0.89 94 1009.0
20260507004532 43 251 0.0 2.6 0.04 0.92 0.88 94 1008.9
20260507003031 43 246 0.0 2.6 0.04 0.92 0.88 94 1008.6
20260507001533 43 243 0.0 3.5 0.05 0.92 0.88 94 1008.3
20260507000029 43 238 0.0 4.3 0.03 0.90 0.86 94 1008.1
20260506234535 43 224 0.0 1.7 0.01 0.88 0.84 94 1008.0
20260506233046 43 274 0.9 3.5 0.02 0.88 0.84 94 1007.4
20260506231529 43 280 0.0 7.0 0.01 0.87 0.83 94 1007.2
20260506230028 43 329 0.9 4.3 0.01 0.87 0.83 94 1007.1
20260506224526 43 303 0.0 7.8 0.01 0.87 0.83 94 1007.0
20260506223024 43 242 0.9 6.1 0.00 0.86 0.82 94 1006.8
20260506221523 43 242 1.7 5.2 0.00 0.86 0.82 94 1006.7
20260506220027 44 242 1.7 6.1 0.00 0.86 0.82 94 1006.5
20260506214520 44 236 1.7 6.1 0.01 0.86 0.82 94 1006.3
20260506213018 44 252 0.9 5.2 0.02 0.86 0.82 94 1006.3
20260506211525 44 302 0.0 8.7 0.02 0.86 0.82 94 1006.3
20260506210025 44 291 0.9 5.2 0.03 0.87 0.82 94 1006.1
20260506204517 44 305 0.0 3.5 0.03 0.86 0.81 94 1006.2
20260506203016 44 269 0.0 1.7 0.04 0.85 0.80 94 1006.0
20260506201517 44 263 0.9 5.2 0.07 0.85 0.80 94 1006.1
20260506200032 44 336 0.9 4.3 0.09 0.87 0.79 94 1006.2
20260506194515 44 236 0.0 7.0 0.10 0.86 0.78 94 1006.2
20260506193013 44 5 0.0 6.1 0.09 0.84 0.76 94 1006.3
20260506191513 44 9 0.0 5.2 0.09 0.81 0.73 94 1006.2
20260506190011 44 295 0.0 7.0 0.07 0.78 0.70 94 1006.3
20260506184510 44 325 0.0 5.2 0.08 0.76 0.68 94 1006.2
20260506183010 44 342 1.7 6.1 0.10 0.75 0.67 94 1006.2
20260506181514 44 334 0.0 7.8 0.10 0.72 0.64 94 1006.4
20260506180015 44 258 0.0 7.0 0.11 0.70 0.62 94 1006.1
20260506174505 44 227 0.9 4.3 0.12 0.68 0.60 94 1006.0
20260506173004 44 243 0.9 7.0 0.13 0.65 0.56 93 1006.2
20260506171503 44 313 1.7 6.1 0.14 0.62 0.54 93 1006.7
20260506170112 44 252 1.7 4.3 0.14 0.59 0.51 93 1006.7
20260506164623 45 15 1.7 5.2 0.14 0.56 0.48 93 1006.2
20260506163103 45 339 0.0 5.2 0.13 0.52 0.44 93 1006.5
20260506161555 45 180 0.0 7.8 0.12 0.48 0.40 93 1006.7
20260506160106 45 245 1.7 6.1 0.12 0.45 0.37 93 1006.8
20260506154554 46 274 1.7 4.3 0.12 0.42 0.34 93 1006.9
20260506153051 46 334 0.9 5.2 0.12 0.39 0.31 93 1007.0
20260506151550 46 302 0.0 2.6 0.11 0.36 0.28 93 1007.2
20260506150049 46 339 0.9 5.2 0.09 0.33 0.25 93 1007.5
20260506144547 46 288 0.9 3.5 0.08 0.30 0.22 93 1007.5
20260506143046 46 265 1.7 7.8 0.08 0.27 0.19 93 1007.6
20260506141604 47 9 0.9 5.2 0.08 0.25 0.17 93 1007.3
20260506140042 47 338 2.6 7.0 0.09 0.24 0.16 93 1007.3
20260506134540 47 336 1.7 5.2 0.09 0.22 0.14 93 1007.3
20260506133037 48 234 0.9 7.0 0.07 0.19 0.11 93 1007.1
20260506131538 48 293 0.0 7.0 0.06 0.17 0.09 93 1007.3
20260506130033 50 342 1.7 7.0 0.04 0.15 0.07 93 1007.3
20260506124531 50 262 0.9 6.1 0.02 0.13 0.05 93 1007.7
20260506123036 51 297 0.0 9.6 0.00 0.11 0.03 93 1007.4
20260506121522 53 10 2.6 7.0 0.00 0.11 0.03 93 1007.2
20260506120034 53 284 0.9 4.3 0.00 0.11 0.03 93 1007.2
20260506114525 53 291 0.9 3.5 0.00 0.11 0.03 93 1007.1
20260506113020 53 268 0.9 3.5 0.00 0.11 0.03 93 1007.2
20260506111520 53 304 0.0 2.6 0.00 0.11 0.03 93 1007.2